When you browse on this site, cookies collect data to enhance your experience and personalize the content and advertising you see.
Visit our Privacy Policy to learn more. By continuing to use the site, you agree to this use of cookies and data.
  • în România
  • Lista ţărilor
  • Pe 7 zile
  • Temperatura apei
  • Hartă satelitară
  • Meteo pe hartă
  • Widget-uri
  • user-avatar
    Intrare

    Meteo pe oră la Ladozhskoe

    Astăzi, 26 Aprilie, Vineri

    Timp Temperatura Precipitaţii Vânt Presiune Umiditate
    00:00 +9°C° 0 mm 2 m/s 754 mmHg 71%
    01:00 +8°C° 0 mm 2 m/s 754 mmHg 73%
    02:00 +8°C° 0 mm 1 m/s 754 mmHg 78%
    03:00 +8°C° 0 mm 1 m/s 754 mmHg 78%
    04:00 +8°C° 0 mm 1 m/s 754 mmHg 79%
    05:00 +7°C° 0 mm 2 m/s 754 mmHg 79%
    06:00 +9°C° 0 mm 2 m/s 754 mmHg 72%
    07:00 +12°C° 0 mm 2 m/s 754 mmHg 65%
    08:00 +14°C° 0 mm 2 m/s 754 mmHg 57%
    09:00 +15°C° 0 mm 2 m/s 754 mmHg 52%
    10:00 +17°C° 0 mm 2 m/s 754 mmHg 48%
    11:00 +18°C° 0 mm 2 m/s 753 mmHg 43%
    12:00 +19°C° 0 mm 2 m/s 753 mmHg 41%
    13:00 +21°C° 0 mm 1 m/s 753 mmHg 38%
    14:00 +22°C° 0 mm 1 m/s 752 mmHg 36%
    15:00 +21°C° 0 mm 1 m/s 752 mmHg 39%
    16:00 +21°C° 0 mm 1 m/s 751 mmHg 41%
    17:00 +20°C° 0 mm 1 m/s 751 mmHg 44%
    18:00 +18°C° 0 mm 1 m/s 751 mmHg 51%
    19:00 +15°C° 0 mm 1 m/s 750 mmHg 58%
    20:00 +13°C° 0 mm 1 m/s 750 mmHg 65%
    21:00 +12°C° 0 mm 2 m/s 750 mmHg 68%
    22:00 +12°C° 0 mm 2 m/s 750 mmHg 71%
    23:00 +10°C° 0 mm 2 m/s 749 mmHg 74%

    Mâine, 27 Aprilie, Sâmbătă

    Timp Temperatura Precipitaţii Vânt Presiune Umiditate
    00:00 +10°C° 0 mm 2 m/s 749 mmHg 78%
    01:00 +10°C° 0 mm 1 m/s 749 mmHg 82%
    02:00 +10°C° 0 mm 1 m/s 748 mmHg 86%
    03:00 +10°C° 0 mm 1 m/s 748 mmHg 86%
    04:00 +10°C° 0 mm 1 m/s 747 mmHg 86%
    05:00 +11°C° 0 mm 1 m/s 747 mmHg 86%
    06:00 +13°C° 0 mm 1 m/s 747 mmHg 75%
    07:00 +16°C° 0 mm 1 m/s 747 mmHg 64%
    08:00 +19°C° 0 mm 1 m/s 746 mmHg 53%
    09:00 +20°C° 0 mm 1 m/s 746 mmHg 47%
    10:00 +21°C° 0 mm 2 m/s 746 mmHg 41%
    11:00 +23°C° 0 mm 2 m/s 745 mmHg 35%
    12:00 +23°C° 0 mm 2 m/s 745 mmHg 36%
    13:00 +21°C° 0 mm 2 m/s 744 mmHg 37%
    14:00 +21°C° 0 mm 2 m/s 744 mmHg 38%
    15:00 +20°C° 0.1 mm 2 m/s 744 mmHg 44%
    16:00 +19°C° 0.1 mm 3 m/s 744 mmHg 49%
    17:00 +17°C° 0.1 mm 4 m/s 744 mmHg 54%
    18:00 +14°C° 0.4 mm 3 m/s 744 mmHg 63%
    19:00 +12°C° 0.4 mm 3 m/s 745 mmHg 71%
    20:00 +10°C° 0.4 mm 3 m/s 745 mmHg 79%
    21:00 +9°C° 0 mm 3 m/s 746 mmHg 78%
    22:00 +7°C° 0 mm 4 m/s 747 mmHg 76%
    23:00 +6°C° 0 mm 5 m/s 747 mmHg 75%

    Poimâine, 28 Aprilie, Duminică

    Timp Temperatura Precipitaţii Vânt Presiune Umiditate
    00:00 +4°C° 0 mm 4 m/s 748 mmHg 74%
    01:00 +3°C° 0 mm 4 m/s 749 mmHg 73%
    02:00 +1°C° 0 mm 4 m/s 749 mmHg 72%
    03:00 0°C° 0 mm 4 m/s 750 mmHg 70%
    04:00 0°C° 0 mm 4 m/s 750 mmHg 67%
    05:00 -1°C° 0 mm 4 m/s 751 mmHg 64%
    06:00 0°C° 0 mm 4 m/s 751 mmHg 58%
    07:00 +1°C° 0 mm 4 m/s 752 mmHg 52%
    08:00 +3°C° 0 mm 4 m/s 752 mmHg 45%
    09:00 +4°C° 0 mm 4 m/s 753 mmHg 43%
    10:00 +5°C° 0 mm 4 m/s 753 mmHg 41%
    11:00 +6°C° 0 mm 4 m/s 753 mmHg 39%
    12:00 +7°C° 0 mm 4 m/s 753 mmHg 38%
    13:00 +7°C° 0 mm 4 m/s 753 mmHg 37%
    14:00 +8°C° 0 mm 3 m/s 754 mmHg 37%
    15:00 +8°C° 0 mm 3 m/s 754 mmHg 36%
    16:00 +8°C° 0 mm 3 m/s 754 mmHg 35%
    17:00 +7°C° 0 mm 3 m/s 754 mmHg 35%
    18:00 +5°C° 0 mm 3 m/s 754 mmHg 40%
    19:00 +4°C° 0 mm 2 m/s 755 mmHg 45%
    20:00 +3°C° 0 mm 2 m/s 755 mmHg 49%
    21:00 +2°C° 0 mm 2 m/s 755 mmHg 52%
    22:00 +1°C° 0 mm 2 m/s 756 mmHg 55%
    23:00 -1°C° 0 mm 2 m/s 756 mmHg 58%

    29 Aprilie, Luni

    Timp Temperatura Precipitaţii Vânt Presiune Umiditate
    00:00 +1°C° 0 mm 1 m/s 756 mmHg 59%
    01:00 0°C° 0 mm 1 m/s 757 mmHg 61%
    02:00 0°C° 0 mm 1 m/s 757 mmHg 63%
    03:00 0°C° 0 mm 1 m/s 757 mmHg 61%
    04:00 0°C° 0 mm 1 m/s 757 mmHg 60%
    05:00 0°C° 0 mm 1 m/s 757 mmHg 58%
    06:00 +2°C° 0 mm 1 m/s 757 mmHg 50%
    07:00 +4°C° 0 mm 1 m/s 757 mmHg 42%
    08:00 +6°C° 0 mm 1 m/s 757 mmHg 34%
    09:00 +8°C° 0 mm 1 m/s 757 mmHg 31%
    10:00 +9°C° 0 mm 1 m/s 757 mmHg 29%
    11:00 +10°C° 0 mm 1 m/s 757 mmHg 26%
    12:00 +11°C° 0 mm 1 m/s 756 mmHg 25%
    13:00 +11°C° 0 mm 1 m/s 756 mmHg 25%
    14:00 +12°C° 0 mm 1 m/s 755 mmHg 24%
    15:00 +11°C° 0 mm 1 m/s 755 mmHg 25%
    16:00 +11°C° 0 mm 1 m/s 754 mmHg 25%
    17:00 +10°C° 0 mm 1 m/s 754 mmHg 26%
    18:00 +8°C° 0 mm 1 m/s 754 mmHg 31%
    19:00 +6°C° 0 mm 0 m/s 754 mmHg 36%
    20:00 +4°C° 0 mm 0 m/s 754 mmHg 41%
    21:00 +3°C° 0 mm 0 m/s 754 mmHg 44%
    22:00 +3°C° 0 mm 1 m/s 754 mmHg 47%
    23:00 +3°C° 0 mm 1 m/s 754 mmHg 50%

    30 Aprilie, Marţi

    Timp Temperatura Precipitaţii Vânt Presiune Umiditate
    00:00 +2°C° 0 mm 1 m/s 753 mmHg 53%
    01:00 +2°C° 0 mm 1 m/s 753 mmHg 56%
    02:00 +1°C° 0 mm 1 m/s 753 mmHg 58%
    03:00 +1°C° 0 mm 1 m/s 753 mmHg 58%
    04:00 +2°C° 0 mm 1 m/s 753 mmHg 58%
    05:00 +2°C° 0 mm 1 m/s 753 mmHg 58%
    06:00 +4°C° 0 mm 1 m/s 752 mmHg 51%
    07:00 +6°C° 0 mm 1 m/s 752 mmHg 44%
    08:00 +9°C° 0 mm 1 m/s 752 mmHg 37%
    09:00 +10°C° 0 mm 1 m/s 752 mmHg 35%
    10:00 +11°C° 0 mm 1 m/s 751 mmHg 32%
    11:00 +12°C° 0 mm 1 m/s 751 mmHg 29%
    12:00 +12°C° 0 mm 2 m/s 750 mmHg 28%
    13:00 +13°C° 0 mm 2 m/s 750 mmHg 27%
    14:00 +13°C° 0 mm 2 m/s 750 mmHg 26%
    15:00 +13°C° 0 mm 2 m/s 749 mmHg 28%
    16:00 +12°C° 0 mm 2 m/s 749 mmHg 30%
    17:00 +12°C° 0 mm 2 m/s 749 mmHg 31%
    18:00 +9°C° 0 mm 2 m/s 749 mmHg 40%
    19:00 +7°C° 0 mm 2 m/s 749 mmHg 49%
    20:00 +6°C° 0 mm 1 m/s 749 mmHg 58%
    21:00 +6°C° 0 mm 1 m/s 749 mmHg 65%
    22:00 +5°C° 0 mm 1 m/s 749 mmHg 71%
    23:00 +4°C° 0 mm 1 m/s 749 mmHg 78%

    1 Mai, Miercuri

    Timp Temperatura Precipitaţii Vânt Presiune Umiditate
    00:00 +4°C° 0 mm 1 m/s 749 mmHg 81%
    01:00 +3°C° 0 mm 1 m/s 749 mmHg 84%
    02:00 +3°C° 0 mm 1 m/s 749 mmHg 86%
    03:00 +3°C° 0 mm 1 m/s 748 mmHg 85%
    04:00 +3°C° 0 mm 1 m/s 748 mmHg 84%
    05:00 +2°C° 0 mm 0 m/s 748 mmHg 82%
    06:00 +4°C° 0 mm 0 m/s 748 mmHg 72%
    07:00 +7°C° 0 mm 0 m/s 748 mmHg 62%
    08:00 +9°C° 0 mm 0 m/s 748 mmHg 51%
    09:00 +11°C° 0 mm 1 m/s 747 mmHg 46%
    10:00 +12°C° 0 mm 1 m/s 747 mmHg 41%
    11:00 +13°C° 0 mm 1 m/s 747 mmHg 36%
    12:00 +14°C° 0 mm 2 m/s 746 mmHg 34%
    13:00 +14°C° 0 mm 2 m/s 745 mmHg 33%
    14:00 +15°C° 0 mm 2 m/s 745 mmHg 31%
    15:00 +15°C° 0 mm 2 m/s 744 mmHg 32%
    16:00 +14°C° 0 mm 2 m/s 744 mmHg 32%
    17:00 +14°C° 0 mm 2 m/s 743 mmHg 33%
    18:00 +12°C° 0 mm 2 m/s 743 mmHg 39%
    19:00 +9°C° 0 mm 2 m/s 743 mmHg 45%
    20:00 +7°C° 0 mm 2 m/s 742 mmHg 51%
    21:00 +7°C° 0 mm 2 m/s 742 mmHg 53%
    22:00 +6°C° 0 mm 2 m/s 742 mmHg 56%
    23:00 +6°C° 0 mm 2 m/s 741 mmHg 58%
    Arată mai mult